Wind_Speed
10 10 10 10 10 10 10 10 10 10 10 10 9 9 9 9 10 10 10 10 10 11 10 10 10 10 11 11 11 12 12 12 12 12 13 14 14 14 14 14 15 15 16
11 11 11 11 11 12 12 12 11 11 11 11 11 11 11 11 11 11 11 11 11 12 12 11 11 11 11 11 12 12 12 13 13 13 14 14 15 15 15 15 15 16 16
12 12 13 13 13 13 13 13 13 13 13 13 13 13 13 13 12 12 12 12 12 12 12 12 12 12 12 12 12 12 12 13 13 14 14 14 14 15 15 16 16 16 16
13 13 13 14 14 14 14 14 14 14 14 14 14 14 14 14 14 14 14 13 13 12 12 13 13 13 12 12 12 12 12 13 13 14 14 15 15 15 15 15 16 17 17
14 14 14 14 15 15 15 15 15 15 15 15 15 15 15 15 15 15 15 14 13 13 13 13 13 13 13 13 13 13 13 13 13 13 14 14 15 15 15 15 16 16 17
15 15 15 15 15 15 16 16 16 16 16 16 16 16 16 16 16 16 16 15 15 15 15 15 14 14 14 14 14 13 13 13 13 13 14 14 15 15 16 16 16 15 16
15 15 15 16 16 16 16 17 17 16 16 16 16 16 17 17 17 17 17 17 17 17 16 16 15 15 15 14 14 14 14 14 14 14 14 15 15 16 15 16 16 16 15
14 14 14 15 15 16 16 17 17 17 16 16 16 17 17 18 18 18 18 18 18 18 18 17 16 16 16 15 15 15 15 15 15 15 16 16 16 16 17 17 17 17 17
14 14 15 15 16 16 16 17 17 17 17 17 17 18 18 18 18 18 19 19 19 19 18 18 18 18 17 17 17 17 17 17 17 17 17 17 17 17 18 18 18 18 18
15 15 16 16 16 17 17 17 18 18 18 18 18 18 18 19 19 19 19 19 19 19 19 19 19 18 18 18 18 18 18 18 18 18 18 18 18 18 18 18 18 18 19
16 16 17 17 17 17 17 18 18 18 19 19 19 19 19 19 19 20 20 19 19 19 19 19 19 18 18 18 18 18 18 18 18 18 18 18 18 18 18 19 19 20 20
16 17 17 17 17 17 17 17 18 19 19 19 20 20 20 20 20 20 20 19 18 18 18 18 18 18 18 19 19 18 18 18 18 18 18 18 19 19 19 19 20 21 21
17 18 18 18 18 18 18 18 19 19 20 20 20 21 21 21 21 21 20 20 20 19 19 19 19 19 19 19 18 19 19 19 18 18 18 18 19 19 19 20 20 21 21
19 19 19 18 19 19 19 19 19 19 20 20 21 21 21 22 22 21 21 20 20 20 20 19 19 19 19 19 19 19 19 20 19 18 19 19 19 20 20 20 20 21 21
19 20 20 20 20 20 20 20 20 20 21 21 21 21 21 22 22 21 21 21 21 21 20 20 20 20 20 20 19 19 19 20 20 20 20 20 20 20 20 20 20 21 21
20 21 21 20 20 20 20 20 21 22 22 22 22 22 21 21 21 22 21 21 21 21 21 21 21 20 20 20 20 20 20 21 21 21 20 20 20 20 20 21 21 21 21
21 21 22 21 21 21 21 21 21 22 22 22 23 23 22 22 22 22 22 22 22 22 22 22 21 21 21 21 21 21 21 21 21 21 22 21 21 21 21 21 21 21 21
21 22 22 22 22 22 22 22 22 22 22 23 23 23 23 22 22 22 22 23 23 23 22 23 23 22 22 22 22 22 22 22 22 22 22 22 22 21 21 21 21 21 21
22 23 23 23 23 23 23 23 23 23 23 23 23 23 23 23 23 23 23 23 23 23 23 23 24 24 23 23 22 22 22 22 23 23 22 22 22 21 21 22 22 22 22
22 23 24 24 24 24 24 24 24 24 23 23 23 23 23 23 23 23 23 23 23 23 24 24 24 25 24 24 23 23 23 23 23 23 24 23 23 22 22 23 23 23 23
22 23 24 24 24 24 24 24 24 23 24 24 24 24 24 24 24 24 23 23 23 23 23 24 24 25 25 25 25 24 24 24 24 24 24 24 24 24 24 24 23 23 23
22 23 23 23 24 24 24 24 24 24 24 24 25 24 25 25 24 24 24 24 24 24 23 24 25 24 24 25 25 26 25 25 25 25 25 25 25 25 25 25 25 25 25
23 24 24 23 24 24 25 25 25 25 25 25 25 25 25 25 25 24 24 25 25 25 25 25 26 25 25 25 25 26 26 26 26 26 26 26 27 26 27 27 26 27 27
24 25 25 25 25 25 25 25 26 26 26 26 25 26 26 25 25 25 25 25 25 25 25 25 26 26 26 26 26 27 27 27 27 27 27 27 28 28 28 28 28 28 28
25 26 27 26 26 26 27 27 27 27 27 27 26 26 26 26 26 26 26 26 26 26 26 27 27 27 27 28 28 28 28 27 28 28 28 28 28 29 29 29 30 30 30
27 27 27 27 26 27 27 27 28 28 27 27 27 27 27 27 27 26 27 27 27 27 27 28 28 28 28 28 28 28 28 28 28 28 29 29 29 29 30 30 30 30 30
Wind_Direction
262 262 264 267 268 270 272 272 271 272 273 274 275 276 278 281 285 287 286 287 288 287 288 290 291 287 282 278 277 275 271 266 262 260 257 253 253 254 254 255 257 257 258
265 264 264 266 267 270 274 274 273 272 273 275 275 276 278 281 284 287 287 287 287 286 285 286 287 286 283 279 276 274 271 266 260 256 254 253 252 252 254 257 258 259 258
266 265 265 267 269 270 272 273 273 272 272 274 276 276 276 278 281 282 284 285 285 284 282 283 285 284 282 278 277 276 274 268 265 258 254 252 251 251 254 257 258 258 259
266 268 267 267 270 271 272 272 272 273 273 271 272 274 275 277 279 279 279 281 282 283 281 280 282 281 279 278 278 278 277 274 270 265 260 259 256 254 256 257 259 260 262
266 268 268 269 271 272 272 270 271 272 271 270 270 272 274 276 277 277 277 278 280 281 281 280 279 277 275 276 276 276 277 276 273 269 266 264 262 261 259 262 262 262 263
266 269 270 271 272 273 273 271 272 273 273 271 269 270 273 276 276 275 275 277 278 278 278 278 276 276 274 275 275 274 274 273 272 270 270 269 267 266 263 265 266 265 265
266 269 272 272 272 274 274 273 274 273 274 274 270 271 273 275 275 275 275 276 277 276 275 275 274 273 273 273 274 274 273 272 271 270 270 269 266 264 263 264 265 265 265
268 270 272 274 273 274 274 273 273 273 273 273 272 272 273 273 274 275 275 275 275 275 275 274 275 274 273 272 272 273 273 272 271 269 268 269 267 263 262 263 263 264 264
268 270 273 274 274 274 274 274 273 273 273 273 274 273 275 276 274 275 276 276 275 274 274 274 275 274 274 273 272 272 272 272 271 270 269 268 268 266 265 263 262 263 263
269 271 273 274 274 273 273 274 275 274 273 272 274 273 275 276 277 277 276 275 274 274 273 273 273 273 275 273 272 271 271 271 272 271 271 270 270 268 267 265 264 263 263
270 273 273 274 275 274 275 276 276 275 274 274 275 276 275 275 277 278 277 275 274 274 274 274 273 273 274 273 273 274 270 270 271 272 271 270 269 267 267 267 266 265 263
273 273 274 274 275 275 277 278 278 277 276 275 275 275 274 274 276 277 277 276 273 272 273 275 274 273 274 274 274 274 271 270 271 271 271 269 269 269 270 270 268 266 265
274 274 275 276 276 277 278 279 279 279 278 276 276 275 274 273 275 277 275 274 273 273 273 274 274 274 274 274 275 274 272 271 271 272 272 271 270 271 272 272 270 268 267
274 275 276 276 277 277 279 280 280 281 279 278 277 275 275 275 275 277 275 273 272 272 272 273 273 275 275 275 275 275 273 272 271 270 271 271 271 271 272 272 271 269 269
273 275 276 276 276 277 278 280 281 281 280 279 278 278 276 276 274 275 275 273 272 271 271 271 272 273 274 275 275 274 276 275 273 272 271 271 272 273 273 271 270 269 268
273 274 275 275 276 278 277 279 281 281 280 279 278 277 276 275 275 274 274 273 271 270 270 270 270 271 274 275 275 274 275 276 275 273 272 272 272 274 273 271 270 270 268
272 273 273 274 276 277 278 280 280 281 281 280 278 277 276 275 274 274 274 273 272 270 267 268 269 271 273 274 275 275 274 274 275 273 271 271 272 272 271 270 271 270 268
272 273 273 273 274 275 277 279 279 281 282 281 279 277 276 275 273 274 273 273 272 270 268 267 269 270 272 273 274 274 274 273 273 274 274 272 271 271 271 271 270 270 269
272 271 272 272 273 274 276 278 278 279 280 282 280 278 276 275 274 275 274 271 271 271 269 267 269 269 271 272 272 272 271 271 271 272 272 272 271 271 271 271 271 270 270
272 271 272 272 274 275 276 277 277 278 279 281 280 278 276 274 275 275 272 271 270 270 268 268 269 270 270 271 272 271 271 271 270 270 270 270 270 270 271 271 271 271 271
276 276 274 272 273 275 275 276 277 278 279 279 278 277 276 276 276 275 272 271 271 271 269 268 269 270 271 272 273 272 271 271 272 270 268 268 268 269 269 269 269 270 271
277 278 276 275 274 275 275 276 277 277 279 279 277 277 276 276 275 273 271 271 272 272 271 270 269 270 270 271 273 273 272 272 272 271 269 268 268 269 269 268 267 269 269
276 277 275 273 274 274 275 275 276 277 278 279 278 277 277 277 275 274 274 273 273 272 270 270 269 269 270 272 272 273 272 272 272 272 271 271 269 268 269 269 268 269 269
276 275 273 274 274 274 275 275 276 277 277 279 279 277 276 276 275 276 275 274 274 273 273 271 271 270 271 271 272 273 273 272 272 271 271 271 271 270 269 269 269 270 269
275 275 275 274 274 274 274 274 276 276 276 277 277 277 276 275 274 275 275 273 273 274 273 272 271 272 272 272 272 273 273 273 272 272 272 272 272 270 269 268 269 269 269
276 274 273 273 274 274 275 275 276 276 275 275 276 276 276 276 275 273 273 272 272 273 272 272 273 272 271 272 272 272 272 272 272 272 272 273 273 272 270 270 271 271 270
Height
5843 5843 5843 5843 5843 5843 5843 5843 5843 5842 5842 5842 5842 5841 5841 5840 5839 5839 5838 5837 5836 5835 5834 5832 5831 5830 5829 5829 5828 5827 5827 5826 5826 5826 5826 5827 5827 5827 5827 5827 5828 5828 5828
5841 5841 5841 5841 5841 5840 5840 5840 5840 5840 5840 5839 5839 5839 5838 5838 5837 5836 5835 5834 5833 5832 5831 5830 5829 5828 5827 5826 5825 5825 5825 5824 5824 5824 5824 5824 5825 5824 5824 5824 5824 5824 5824
5838 5838 5838 5838 5838 5838 5838 5837 5837 5836 5836 5836 5836 5836 5836 5835 5834 5833 5833 5832 5830 5829 5828 5828 5826 5825 5824 5824 5823 5822 5822 5821 5821 5821 5821 5821 5821 5821 5821 5821 5821 5821 5821
5835 5835 5835 5834 5834 5834 5834 5834 5834 5833 5833 5833 5833 5832 5832 5832 5831 5830 5830 5829 5828 5826 5825 5825 5823 5822 5821 5821 5820 5820 5819 5818 5818 5818 5818 5818 5817 5818 5818 5818 5818 5818 5818
5831 5831 5831 5831 5831 5830 5830 5830 5830 5830 5829 5829 5829 5828 5828 5828 5827 5827 5826 5825 5824 5823 5822 5821 5820 5819 5818 5818 5817 5816 5816 5815 5815 5815 5814 5814 5814 5814 5814 5814 5814 5814 5814
5827 5827 5827 5827 5827 5827 5826 5826 5826 5826 5825 5825 5825 5824 5824 5824 5823 5823 5822 5821 5820 5819 5818 5817 5816 5816 5815 5814 5813 5813 5812 5812 5812 5811 5811 5811 5811 5810 5811 5811 5811 5810 5810
5823 5823 5823 5823 5823 5822 5822 5822 5822 5821 5821 5821 5820 5820 5820 5819 5819 5818 5818 5817 5816 5815 5814 5813 5812 5812 5811 5810 5810 5809 5809 5808 5808 5807 5807 5807 5807 5807 5807 5807 5807 5807 5807
5819 5819 5819 5819 5818 5818 5818 5817 5817 5817 5816 5816 5816 5815 5815 5815 5814 5813 5813 5812 5811 5810 5809 5808 5808 5807 5807 5806 5806 5805 5805 5804 5804 5803 5803 5803 5803 5803 5803 5803 5802 5802 5803
5815 5814 5814 5814 5814 5814 5813 5813 5812 5812 5812 5811 5811 5811 5810 5809 5809 5808 5807 5807 5806 5805 5804 5804 5803 5802 5802 5802 5801 5801 5800 5800 5799 5799 5798 5798 5798 5798 5798 5798 5798 5798 5798
5810 5810 5810 5810 5809 5809 5808 5808 5808 5807 5807 5806 5806 5806 5805 5804 5803 5803 5802 5801 5800 5800 5799 5798 5798 5797 5797 5796 5796 5796 5795 5795 5794 5794 5794 5793 5793 5793 5793 5793 5792 5792 5793
5805 5805 5805 5805 5804 5804 5803 5803 5802 5802 5801 5801 5800 5800 5799 5799 5798 5797 5796 5795 5794 5794 5793 5793 5792 5792 5792 5791 5791 5790 5790 5790 5789 5789 5788 5788 5788 5788 5788 5787 5787 5787 5787
5800 5800 5799 5799 5799 5798 5798 5797 5797 5796 5796 5795 5795 5794 5793 5793 5792 5791 5790 5789 5789 5788 5788 5788 5787 5787 5786 5786 5785 5785 5785 5784 5784 5784 5783 5783 5782 5782 5782 5782 5781 5781 5781
5795 5795 5794 5794 5793 5793 5792 5792 5791 5790 5789 5789 5789 5788 5787 5787 5786 5785 5784 5784 5783 5783 5782 5782 5782 5781 5781 5780 5780 5779 5779 5779 5778 5778 5777 5777 5777 5776 5776 5776 5775 5775 5775
5790 5789 5789 5788 5788 5787 5787 5786 5785 5784 5783 5783 5782 5782 5781 5781 5780 5779 5778 5778 5777 5777 5777 5777 5776 5776 5775 5775 5774 5774 5773 5773 5773 5772 5772 5771 5771 5771 5770 5769 5769 5769 5769
5784 5783 5783 5783 5782 5781 5781 5780 5779 5779 5778 5777 5776 5775 5775 5774 5774 5773 5773 5772 5771 5771 5771 5771 5770 5770 5770 5769 5769 5768 5768 5767 5767 5766 5766 5765 5765 5764 5764 5763 5763 5762 5762
5778 5777 5777 5776 5776 5775 5775 5774 5773 5772 5771 5770 5769 5769 5768 5768 5767 5767 5766 5765 5765 5765 5765 5764 5764 5764 5764 5763 5763 5762 5761 5761 5760 5760 5759 5759 5758 5758 5757 5757 5756 5756 5756
5771 5771 5770 5770 5770 5769 5769 5768 5767 5766 5764 5763 5762 5762 5761 5761 5760 5760 5759 5759 5758 5758 5758 5758 5757 5757 5757 5757 5756 5756 5755 5754 5754 5753 5753 5753 5752 5752 5751 5750 5750 5749 5749
5765 5764 5764 5763 5763 5762 5762 5761 5760 5759 5757 5756 5755 5754 5754 5754 5753 5753 5752 5752 5751 5751 5751 5751 5750 5750 5750 5750 5749 5748 5748 5747 5747 5747 5746 5746 5745 5745 5744 5744 5743 5743 5743
5758 5757 5757 5756 5756 5755 5755 5754 5753 5752 5750 5749 5748 5747 5746 5746 5746 5745 5745 5744 5744 5744 5743 5743 5743 5743 5743 5743 5742 5742 5741 5741 5740 5740 5739 5739 5738 5738 5738 5737 5737 5736 5736
5750 5750 5749 5749 5748 5748 5747 5746 5745 5744 5743 5742 5741 5740 5739 5738 5738 5737 5737 5737 5736 5736 5736 5736 5736 5736 5735 5735 5735 5734 5734 5734 5733 5733 5732 5732 5732 5731 5730 5730 5730 5729 5729
5743 5742 5742 5741 5740 5740 5739 5739 5738 5737 5736 5734 5733 5732 5731 5731 5730 5730 5729 5729 5729 5728 5728 5728 5728 5728 5728 5728 5727 5727 5727 5726 5726 5725 5725 5724 5724 5724 5723 5723 5722 5722 5721
5735 5735 5734 5733 5733 5732 5732 5731 5731 5729 5728 5727 5726 5725 5724 5723 5723 5722 5722 5722 5721 5721 5721 5721 5720 5720 5720 5720 5720 5719 5719 5718 5718 5717 5717 5716 5716 5716 5715 5715 5715 5714 5714
5728 5727 5726 5726 5725 5725 5724 5723 5723 5721 5720 5719 5718 5717 5716 5716 5715 5714 5714 5714 5713 5713 5713 5713 5713 5712 5712 5712 5711 5711 5711 5710 5710 5709 5709 5708 5708 5708 5707 5707 5707 5706 5706
5720 5719 5719 5718 5718 5717 5716 5715 5714 5713 5712 5711 5710 5709 5708 5708 5707 5706 5706 5706 5705 5705 5705 5704 5704 5704 5704 5704 5703 5703 5702 5701 5701 5700 5700 5700 5699 5699 5699 5698 5698 5698 5697
5712 5711 5710 5710 5710 5709 5708 5707 5706 5705 5704 5703 5702 5701 5700 5699 5699 5698 5698 5697 5697 5696 5696 5696 5695 5695 5695 5695 5694 5693 5693 5693 5692 5692 5691 5691 5690 5690 5690 5690 5689 5689 5688
5703 5702 5702 5701 5700 5700 5699 5698 5697 5696 5695 5694 5693 5693 5692 5691 5690 5690 5689 5689 5688 5688 5687 5687 5687 5686 5686 5686 5685 5685 5684 5684 5683 5683 5682 5682 5681 5681 5680 5680 5680 5679 5679